Simultaneous Nadir Overpasses (SNOs) Predictions

Prediction of SNOs between AQUA and METOP-C Satellite Orbit:

Table of predicted SNOs for the next 14.0 days since TLE Epoch: 8/7/2020
Index Date (AQUA) Time (AQUA) Lat,Lon (AQUA) SZA (AQUA ) Date (METOP-C) Time (METOP-C) Lat,Lon (METOP-C) SZA (METOP-C ) Distance(km) Time Diff (sec)
1 08/10/2020 11:42:09 -73.46, 179.50 121.87 08/10/2020 11:40:58 -73.39, 178.28 121.87 39.59 71
2 08/10/2020 12:31:43 73.77, -13.54 58.48 08/10/2020 12:31:31 73.76, -13.53 58.48 0.93 12
3 08/10/2020 13:21:09 -73.81, 154.01 121.46 08/10/2020 13:22:11 -73.81, 153.92 121.47 2.71 62
4 08/13/2020 07:16:27 -73.61,-114.39 120.86 08/13/2020 07:15:14 -73.59,-114.84 120.85 14.38 73
5 08/13/2020 08:05:58 73.77, 52.89 59.33 08/13/2020 08:05:51 73.76, 52.89 59.32 1.11 7
6 08/13/2020 08:55:24 -73.81,-139.55 120.62 08/13/2020 08:56:31 -73.82,-139.65 120.62 3.16 67
7 08/16/2020 02:50:45 -73.72, -48.19 119.87 08/16/2020 02:49:33 -73.69, -48.19 119.88 2.75 72
8 08/16/2020 03:40:14 73.78, 119.31 60.21 08/16/2020 03:40:12 73.76, 119.29 60.19 2.20 2
9 08/16/2020 04:29:40 -73.82, -73.13 119.74 08/16/2020 04:30:52 -73.82, -73.24 119.75 3.35 72
10 08/18/2020 22:25:01 -73.73, 18.22 118.96 08/18/2020 22:23:54 -73.70, 18.22 118.98 3.56 67
11 08/18/2020 23:14:30 73.79,-174.29 61.13 08/18/2020 23:14:32 73.81,-174.18 61.14 3.51 2
12 08/19/2020 00:03:58 -73.93, -6.94 118.72 08/19/2020 00:05:10 -73.97, -6.46 118.71 15.41 72
13 08/21/2020 17:59:15 -73.69, 84.74 118.07 08/21/2020 17:58:14 -73.70, 84.63 118.05 3.54 61
14 08/21/2020 18:48:45 73.81,-107.89 62.07 08/21/2020 18:48:52 73.80,-107.78 62.06 3.49 7
